sat.trackr.live / text

‹ back to catalog

STARLINK-31035

NORAD 58532 · 2023-192B

PAYLOAD ACTIVE UNKNOWN

§ Identity

Operator
Country
US
Launch date
2023-12-08
Launch site
AFWTR
Launch vehicle
Mass (kg)
RCS (m²)

Purposes: comms

External: N2YO · Heavens-Above · Gunter

§ Orbital elements

Epoch: 2026-05-25T03:07:08.976000Z

Period
94.11 min
Inclination
53.1615°
Eccentricity
0.0001152
Mean motion
15.30172185 rev/d
Perigee alt
474.5 km
Apogee alt
476.1 km
Semi-major
6,853.4 km
B*
-5.8084e-5
RAAN
54.5275°
Arg perigee
101.0862°
Mean anomaly
259.0268°
Rev number
13,787

§ Raw data

STARLINK-310351 58532U 23192B   26145.12996500 -.00002077  00000+0 -58084-4 0  99962 58532  53.1615  54.5275 0001152 101.0862 259.0268 15.30172185137872

JSON: /api/v1/satellites/58532 · /tle

For live sub-satellite position, see the globe view (requires WebGL).

§ Visibility from observer

Set your observer location to see the next 7 days of passes ≥ 10°. The values pass through the URL so the page stays shareable.

No JS? Fill the form by hand. The geolocation button needs JavaScript.